Hourly Data Report for October 28, 2015

All times are specified in Local Standard Time (LST). Add 1 hour to adjust for Daylight Saving Time where and when it is observed.

CLYDE RIVER A
NUNAVUT

70°29'09.000" N
68°31'01.000" W
26.50 m
2400804
71090
YCY

Download Data

Hourly Data (October 2015)
Hourly Data Report for October 28, 2015
Temp Definition
°C
Dew Point Temp Definition
°C
Rel Hum Definition
%
Wind Dir Definition
10's deg

Wind Spd Definition
km/h
Visibility Definition
km
Stn Press Definition
kPa
Hmdx Definition


Wind Chill Definition


Weather Definition


TIME
00:00 Legend Double Dagger -16.7 -23.4 57 29 30 16.1 100.30   -28 LegendNANA
01:00 Legend Double Dagger -18.7 -23.8 65 30 28 16.1 100.33   -31 LegendNANA
02:00 Legend Double Dagger -17.0 -22.7 62 30 30 16.1 100.32   -29 LegendNANA
03:00 Legend Double Dagger -17.2 -22.5 64 28 21 16.1 100.34   -27 LegendNANA
04:00 Legend Double Dagger -17.3 -23.6 58 26 11 16.1 100.38   -24 LegendNANA
05:00 Legend Double Dagger -15.9 -22.4 58 24 11 16.1 100.40   -23 LegendNANA
06:00 Legend Double Dagger -17.8 -22.0 70 23 11 16.1 100.35   -25 LegendNANA
07:00 Legend Double Dagger -15.6 -20.4 67 30 32 16.1 100.31   -27 LegendNANA
08:00 Legend Double Dagger -15.8 -20.6 67 29 30 16.1 100.35   -27 LegendNANA
09:00 Legend Double Dagger -14.9 -18.9 72 29 34 16.1 100.33   -27 LegendNANA
10:00 Legend Double Dagger -13.4 -17.4 72 29 30 16.1 100.31   -24 LegendNANA
11:00 Legend Double Dagger -10.8 -15.1 71 29 32 16.1 100.26   -21 LegendNANA
12:00 Legend Double Dagger -10.3 -14.4 72 30 35 16.1 100.29   -21 LegendNANA
13:00 Legend Double Dagger -9.8 -13.1 77 29 28 16.1 100.33   -19 LegendNANA
14:00 Legend Double Dagger -9.9 -13.5 75 29 30 16.1 100.38   -19 LegendNANA
15:00 Legend Double Dagger -12.1 -15.5 76 29 28 16.1 100.40   -22 LegendNANA
16:00 Legend Double Dagger -13.6 -16.9 77 28 26 16.1 100.40   -24 LegendNANA
17:00 Legend Double Dagger -14.2 -17.7 75 28 22 16.1 100.46   -24 LegendNANA
18:00 Legend Double Dagger -13.9 -18.3 70 29 34 16.1 100.48   -25 LegendNANA
19:00 Legend Double Dagger -13.7 -18.6 67 28 28 16.1 100.48   -24 LegendNANA
20:00 Legend Double Dagger -13.0 -17.6 69 29 28 16.1 100.47   -23 LegendNANA
21:00 Legend Double Dagger -11.1 -15.9 68 28 34 16.1 100.44   -22 Snow
22:00 Legend Double Dagger -11.6 -16.8 66 28 34 16.1 100.41   -22 LegendNANA
23:00 Legend Double Dagger -12.4 -16.8 70 28 32 16.1 100.40   -23 LegendNANA

Notes on Data Quality.

Legend

  • E = Estimated
  • M = Missing
  • NA = Not Available
  • ‡ = Partner data that is not subject to review by the National Climate Archives
Date modified: